,,,PA_Meas_PMT16A,,PR_Meas_QMR101_102,,RH_Meas_QMH101,,SR_Meas_QMS101,,TA_Meas_QMH101,,GenWind,,GenWind,
date,time,status,PA,status,PR,status,RH,status,SR,status,TA,status,DirAvg,status,SpdAvg,
2008-10-19, 00:00:04,VALID,1008.72,VALID,0,VALID,94.4678,VALID,0.105969,VALID,23.8268,VALID,90,VALID,0.762891,
2008-10-19, 00:01:04,VALID,1008.72,VALID,0,VALID,94.4907,VALID,0.105969,VALID,23.8481,VALID,92,VALID,0.572656,
2008-10-19, 00:02:04,VALID,1008.69,VALID,0,VALID,94.4907,VALID,0.105969,VALID,23.8676,VALID,97,VALID,0.527344,
2008-10-19, 00:03:04,VALID,1008.63,VALID,0,VALID,94.4983,VALID,0.105969,VALID,23.8658,VALID,82,VALID,0.488672,
2008-10-19, 00:04:04,VALID,1008.64,VALID,0,VALID,94.5212,VALID,0.105969,VALID,23.8871,VALID,90,VALID,0.40625,
2008-10-19, 00:05:04,VALID,1008.61,VALID,0,VALID,94.5288,VALID,0,VALID,23.9278,VALID,94,VALID,0.396875,
2008-10-19, 00:06:04,VALID,1008.61,VALID,0,VALID,94.5593,VALID,0.105969,VALID,23.926,VALID,94,VALID,0.215234,
2008-10-19, 00:07:04,VALID,1008.58,VALID,0,VALID,94.5441,VALID,0,VALID,23.9065,VALID,94,VALID,0.505078,
2008-10-19, 00:08:04,VALID,1008.58,VALID,0,VALID,94.5212,VALID,0.105969,VALID,23.9047,VALID,103,VALID,0.7125,
2008-10-19, 00:09:04,VALID,1008.58,VALID,0,VALID,94.4831,VALID,0.105969,VALID,23.8871,VALID,98,VALID,0.823047,
2008-10-19, 00:10:04,VALID,1008.58,VALID,0,VALID,94.3992,VALID,0,VALID,23.8676,VALID,97,VALID,0.698438,
2008-10-19, 00:11:04,VALID,1008.6,VALID,0,VALID,94.445,VALID,0.105969,VALID,23.9084,VALID,89,VALID,0.577734,
2008-10-19, 00:12:04,VALID,1008.6,VALID,0,VALID,94.4145,VALID,0,VALID,23.8676,VALID,93,VALID,0.68125,
2008-10-19, 00:13:04,VALID,1008.63,VALID,0,VALID,94.4373,VALID,0,VALID,23.8871,VALID,84,VALID,0.648438,
2008-10-19, 00:14:04,VALID,1008.61,VALID,0,VALID,94.3916,VALID,0.105969,VALID,23.8481,VALID,100,VALID,0.645312,
2008-10-19, 00:15:04,VALID,1008.6,VALID,0,VALID,94.3992,VALID,0.105969,VALID,23.8481,VALID,100,VALID,0.68125,
2008-10-19, 00:16:04,VALID,1008.6,VALID,0,VALID,94.4068,VALID,0,VALID,23.8676,VALID,101,VALID,0.743359,
2008-10-19, 00:17:04,VALID,1008.58,VALID,0,VALID,94.3763,VALID,0,VALID,23.8481,VALID,101,VALID,0.755469,
2008-10-19, 00:18:04,VALID,1008.56,VALID,0,VALID,94.3763,VALID,0.105969,VALID,23.8481,VALID,93,VALID,0.794922,
2008-10-19, 00:19:04,VALID,1008.58,VALID,0,VALID,94.4145,VALID,0,VALID,23.8481,VALID,100,VALID,0.603906,
2008-10-19, 00:20:04,VALID,1008.52,VALID,0,VALID,94.3992,VALID,0.105969,VALID,23.8481,VALID,103,VALID,0.819922,
2008-10-19, 00:21:04,VALID,1008.5,VALID,0,VALID,94.4145,VALID,0.105969,VALID,23.8481,VALID,100,VALID,0.729297,
2008-10-19, 00:22:04,VALID,1008.48,VALID,0,VALID,94.3916,VALID,0,VALID,23.8676,VALID,89,VALID,0.533984,
2008-10-19, 00:23:04,VALID,1008.45,VALID,0,VALID,94.3687,VALID,0.105969,VALID,23.8481,VALID,81,VALID,0.264453,
2008-10-19, 00:24:04,VALID,1008.43,VALID,0,VALID,94.3458,VALID,0.105969,VALID,23.8481,VALID,74,VALID,0.519141,
2008-10-19, 00:25:04,VALID,1008.4,VALID,0,VALID,94.3458,VALID,0.105969,VALID,23.8676,VALID,74,VALID,0.160547,
2008-10-19, 00:26:04,VALID,1008.39,VALID,0,VALID,94.3229,VALID,0,VALID,23.8676,VALID,60,VALID,0.242969,
2008-10-19, 00:27:04,VALID,1008.39,VALID,0,VALID,94.2696,VALID,0.105969,VALID,23.8481,VALID,33,VALID,0.35,
2008-10-19, 00:28:04,VALID,1008.36,VALID,0,VALID,94.2696,VALID,0.105969,VALID,23.8481,VALID,47,VALID,0.386328,
2008-10-19, 00:29:04,VALID,1008.36,VALID,0,VALID,94.2772,VALID,0.105969,VALID,23.8481,VALID,43,VALID,0.224609,
2008-10-19, 00:30:04,VALID,1008.38,VALID,0,VALID,94.2848,VALID,0.105969,VALID,23.8481,VALID,43,VALID,0,
2008-10-19, 00:31:04,VALID,1008.35,VALID,0,VALID,94.2924,VALID,0.105969,VALID,23.8481,VALID,43,VALID,0.0875,
2008-10-19, 00:32:04,VALID,1008.35,VALID,0,VALID,94.3077,VALID,0.105969,VALID,23.8286,VALID,43,VALID,0.18125,
2008-10-19, 00:33:04,VALID,1008.36,VALID,0,VALID,94.2772,VALID,0,VALID,23.8286,VALID,43,VALID,0,
2008-10-19, 00:34:04,VALID,1008.35,VALID,0,VALID,94.2924,VALID,0.105969,VALID,23.8091,VALID,43,VALID,0.116016,
2008-10-19, 00:35:04,VALID,1008.36,VALID,0,VALID,94.2924,VALID,0.105969,VALID,23.8286,VALID,43,VALID,0.0359375,
2008-10-19, 00:36:04,VALID,1008.34,VALID,0,VALID,94.3077,VALID,0.105969,VALID,23.8286,VALID,43,VALID,0.178516,
2008-10-19, 00:37:04,VALID,1008.33,VALID,0,VALID,94.3382,VALID,0.105969,VALID,23.8304,VALID,43,VALID,0,
2008-10-19, 00:38:04,VALID,1008.34,VALID,0,VALID,94.3458,VALID,0.105969,VALID,23.8073,VALID,43,VALID,0,
2008-10-19, 00:39:04,VALID,1008.32,VALID,0,VALID,94.3611,VALID,0.105969,VALID,23.8073,VALID,43,VALID,0,
2008-10-19, 00:40:04,VALID,1008.31,VALID,0,VALID,94.3763,VALID,0.105969,VALID,23.8286,VALID,43,VALID,0,
2008-10-19, 00:41:04,VALID,1008.33,VALID,0,VALID,94.3687,VALID,0.105969,VALID,23.8091,VALID,43,VALID,0,
2008-10-19, 00:42:04,VALID,1008.32,VALID,0,VALID,94.3763,VALID,0.105969,VALID,23.8091,VALID,43,VALID,0,
2008-10-19, 00:43:04,VALID,1008.31,VALID,0,VALID,94.3916,VALID,0,VALID,23.8286,VALID,43,VALID,0,
2008-10-19, 00:44:04,VALID,1008.34,VALID,0,VALID,94.4145,VALID,0.105969,VALID,23.8073,VALID,43,VALID,0,
2008-10-19, 00:45:04,VALID,1008.34,VALID,0,VALID,94.4145,VALID,0.105969,VALID,23.8286,VALID,43,VALID,0,
2008-10-19, 00:46:04,VALID,1008.34,VALID,0,VALID,94.4373,VALID,0.105969,VALID,23.8268,VALID,43,VALID,0.0609375,
2008-10-19, 00:47:04,VALID,1008.35,VALID,0,VALID,94.4145,VALID,0.105969,VALID,23.8286,VALID,43,VALID,0.0539063,
2008-10-19, 00:48:04,VALID,1008.36,VALID,0,VALID,94.4297,VALID,0.105969,VALID,23.8286,VALID,43,VALID,0,
2008-10-19, 00:49:04,VALID,1008.36,VALID,0,VALID,94.4068,VALID,0.105969,VALID,23.8481,VALID,43,VALID,0,
2008-10-19, 00:50:04,VALID,1008.38,VALID,0,VALID,94.4373,VALID,0.105969,VALID,23.8676,VALID,43,VALID,0,
2008-10-19, 00:51:04,VALID,1008.38,VALID,0,VALID,94.445,VALID,0.105969,VALID,23.8481,VALID,43,VALID,0,
2008-10-19, 00:52:04,VALID,1008.42,VALID,0,VALID,94.4602,VALID,0.105969,VALID,23.8481,VALID,43,VALID,0,
2008-10-19, 00:53:04,VALID,1008.43,VALID,0,VALID,94.4755,VALID,0,VALID,23.8286,VALID,43,VALID,0,
2008-10-19, 00:54:04,VALID,1008.47,VALID,0,VALID,94.4907,VALID,0,VALID,23.8694,VALID,43,VALID,0,
2008-10-19, 00:55:04,VALID,1008.45,VALID,0,VALID,94.506,VALID,0,VALID,23.8499,VALID,43,VALID,0,
2008-10-19, 00:56:04,VALID,1008.47,VALID,0,VALID,94.4983,VALID,0,VALID,23.8499,VALID,43,VALID,0,
2008-10-19, 00:57:04,VALID,1008.48,VALID,0,VALID,94.5288,VALID,0,VALID,23.8694,VALID,43,VALID,0,
2008-10-19, 00:58:04,VALID,1008.47,VALID,0,VALID,94.506,VALID,0,VALID,23.8694,VALID,43,VALID,0,
2008-10-19, 00:59:04,VALID,1008.47,VALID,0,VALID,94.5365,VALID,0,VALID,23.8871,VALID,43,VALID,0.025,
2008-10-19, 01:00:04,VALID,1008.46,VALID,0,VALID,94.506,VALID,0,VALID,23.8499,VALID,46,VALID,0.527344,
2008-10-19, 01:01:04,VALID,1008.44,VALID,0,VALID,94.4983,VALID,0,VALID,23.8499,VALID,80,VALID,0.685547,
2008-10-19, 01:02:04,VALID,1008.43,VALID,0,VALID,94.4907,VALID,0,VALID,23.8499,VALID,64,VALID,0.650781,
2008-10-19, 01:03:04,VALID,1008.4,VALID,0,VALID,94.506,VALID,0,VALID,23.8499,VALID,75,VALID,0.503516,
2008-10-19, 01:04:04,VALID,1008.37,VALID,0,VALID,94.4907,VALID,0,VALID,23.8499,VALID,75,VALID,0.440234,
2008-10-19, 01:05:04,VALID,1008.37,VALID,0,VALID,94.4907,VALID,0,VALID,23.8694,VALID,75,VALID,0.153906,
2008-10-19, 01:06:04,VALID,1008.37,VALID,0,VALID,94.4831,VALID,0,VALID,23.8499,VALID,72,VALID,0.320313,
2008-10-19, 01:07:04,VALID,1008.33,VALID,0,VALID,94.4602,VALID,0,VALID,23.8499,VALID,71,VALID,0,
2008-10-19, 01:08:04,VALID,1008.33,VALID,0,VALID,94.4373,VALID,0,VALID,23.8304,VALID,71,VALID,0,
2008-10-19, 01:09:04,VALID,1008.32,VALID,0,VALID,94.445,VALID,0,VALID,23.8304,VALID,71,VALID,0.226563,
2008-10-19, 01:10:04,VALID,1008.32,VALID,0,VALID,94.445,VALID,0,VALID,23.8091,VALID,70,VALID,0,
2008-10-19, 01:11:04,VALID,1008.31,VALID,0,VALID,94.4373,VALID,0,VALID,23.8109,VALID,71,VALID,0,
2008-10-19, 01:12:04,VALID,1008.33,VALID,0,VALID,94.4831,VALID,0,VALID,23.8304,VALID,105,VALID,0.408203,
2008-10-19, 01:13:04,VALID,1008.3,VALID,0,VALID,94.506,VALID,0,VALID,23.8286,VALID,112,VALID,0.868359,
2008-10-19, 01:14:04,VALID,1008.3,VALID,0,VALID,94.567,VALID,0,VALID,23.8694,VALID,155,VALID,0.616406,
2008-10-19, 01:15:04,VALID,1008.3,VALID,0,VALID,94.5593,VALID,0,VALID,23.8499,VALID,158,VALID,0.604297,
2008-10-19, 01:16:04,VALID,1008.31,VALID,0,VALID,94.5517,VALID,0,VALID,23.8499,VALID,164,VALID,0.902344,
2008-10-19, 01:17:04,VALID,1008.3,VALID,0,VALID,94.5517,VALID,0,VALID,23.8109,VALID,175,VALID,0.766797,
2008-10-19, 01:18:04,VALID,1008.27,VALID,0,VALID,94.5365,VALID,0,VALID,23.7896,VALID,163,VALID,0.613672,
2008-10-19, 01:19:04,VALID,1008.3,VALID,0,VALID,94.5898,VALID,0,VALID,23.8109,VALID,163,VALID,0.612109,
2008-10-19, 01:20:04,VALID,1008.28,VALID,0,VALID,94.5975,VALID,0,VALID,23.7914,VALID,163,VALID,0.459375,
2008-10-19, 01:21:04,VALID,1008.29,VALID,0,VALID,94.5975,VALID,0,VALID,23.8109,VALID,163,VALID,0.277734,
2008-10-19, 01:22:04,VALID,1008.27,VALID,0,VALID,94.6356,VALID,0,VALID,23.8109,VALID,163,VALID,0.189844,
2008-10-19, 01:23:04,VALID,1008.33,VALID,0,VALID,94.628,VALID,0,VALID,23.7896,VALID,138,VALID,0.328906,
2008-10-19, 01:24:04,VALID,1008.27,VALID,0,VALID,94.6356,VALID,0,VALID,23.7914,VALID,138,VALID,0.287109,
2008-10-19, 01:25:04,VALID,1008.28,VALID,0,VALID,94.6737,VALID,0,VALID,23.7914,VALID,106,VALID,0.610937,
2008-10-19, 01:26:04,VALID,1008.23,VALID,0,VALID,94.6432,VALID,0,VALID,23.7914,VALID,104,VALID,0.489844,
2008-10-19, 01:27:04,VALID,1008.24,VALID,0,VALID,94.6966,VALID,0,VALID,23.8109,VALID,88,VALID,0.553906,
2008-10-19, 01:28:04,VALID,1008.25,VALID,0,VALID,94.689,VALID,0,VALID,23.8109,VALID,96,VALID,0.483203,
2008-10-19, 01:29:04,VALID,1008.22,VALID,0,VALID,94.6814,VALID,0,VALID,23.7914,VALID,64,VALID,0.649609,
2008-10-19, 01:30:04,VALID,1008.21,VALID,0,VALID,94.6966,VALID,0,VALID,23.7914,VALID,65,VALID,0.339453,
2008-10-19, 01:31:04,VALID,1008.18,VALID,0,VALID,94.7042,VALID,0,VALID,23.7914,VALID,65,VALID,0,
2008-10-19, 01:32:05,VALID,1008.17,VALID,0,VALID,94.689,VALID,0,VALID,23.7914,VALID,96,VALID,0.619141,
2008-10-19, 01:33:05,VALID,1008.16,VALID,0,VALID,94.6737,VALID,0,VALID,23.7914,VALID,101,VALID,0.705859,
2008-10-19, 01:34:05,VALID,1008.16,VALID,0,VALID,94.6814,VALID,0,VALID,23.7914,VALID,86,VALID,0.600781,
2008-10-19, 01:35:05,VALID,1008.12,VALID,0,VALID,94.6814,VALID,0,VALID,23.772,VALID,87,VALID,0.507813,
2008-10-19, 01:36:05,VALID,1008.14,VALID,0,VALID,94.6814,VALID,0,VALID,23.7525,VALID,88,VALID,0.503516,
2008-10-19, 01:37:05,VALID,1008.16,VALID,0,VALID,94.6814,VALID,0,VALID,23.7525,VALID,90,VALID,0.641016,
2008-10-19, 01:38:05,VALID,1008.15,VALID,0,VALID,94.7195,VALID,0,VALID,23.7932,VALID,91,VALID,0.669531,
2008-10-19, 01:39:05,VALID,1008.16,VALID,0,VALID,94.689,VALID,0,VALID,23.7525,VALID,86,VALID,0.664063,
2008-10-19, 01:40:05,VALID,1008.14,VALID,0,VALID,94.7119,VALID,0,VALID,23.7543,VALID,86,VALID,0.511719,
2008-10-19, 01:41:05,VALID,1008.16,VALID,0,VALID,94.7195,VALID,0,VALID,23.7525,VALID,86,VALID,0.700391,
2008-10-19, 01:42:05,VALID,1008.14,VALID,0,VALID,94.7347,VALID,0,VALID,23.7525,VALID,81,VALID,0.683594,
2008-10-19, 01:43:05,VALID,1008.13,VALID,0,VALID,94.7271,VALID,0,VALID,23.733,VALID,105,VALID,0.64375,
2008-10-19, 01:44:05,VALID,1008.13,VALID,0,VALID,94.75,VALID,0,VALID,23.733,VALID,105,VALID,0.905469,
2008-10-19, 01:45:05,VALID,1008.13,VALID,0,VALID,94.7729,VALID,0,VALID,23.7135,VALID,105,VALID,0.501953,
2008-10-19, 01:46:05,VALID,1008.09,VALID,0,VALID,94.7576,VALID,0,VALID,23.7525,VALID,105,VALID,0.302734,
2008-10-19, 01:47:05,VALID,1008.08,VALID,0,VALID,94.7957,VALID,0,VALID,23.7525,VALID,105,VALID,0.162109,
2008-10-19, 01:48:05,VALID,1008.06,VALID,0,VALID,94.7881,VALID,0,VALID,23.7312,VALID,91,VALID,0.443359,
2008-10-19, 01:49:05,VALID,1008.07,VALID,0,VALID,94.811,VALID,0,VALID,23.7312,VALID,74,VALID,0.53125,
2008-10-19, 01:50:05,VALID,1008.09,VALID,0,VALID,94.8034,VALID,0,VALID,23.7525,VALID,71,VALID,0.532031,
2008-10-19, 01:51:05,VALID,1008.12,VALID,0,VALID,94.8034,VALID,0,VALID,23.7525,VALID,67,VALID,0.184766,
2008-10-19, 01:52:05,VALID,1008.08,VALID,0,VALID,94.8034,VALID,0,VALID,23.7525,VALID,65,VALID,0.379297,
2008-10-19, 01:53:05,VALID,1008.1,VALID,0,VALID,94.8034,VALID,0,VALID,23.7525,VALID,60,VALID,0.377344,
2008-10-19, 01:54:05,VALID,1008.11,VALID,0,VALID,94.8186,VALID,0,VALID,23.7525,VALID,56,VALID,0.340234,
2008-10-19, 01:55:05,VALID,1008.12,VALID,0,VALID,94.8034,VALID,0,VALID,23.733,VALID,43,VALID,0.3625,
2008-10-19, 01:56:05,VALID,1008.09,VALID,0,VALID,94.8034,VALID,0,VALID,23.733,VALID,43,VALID,0.216406,
2008-10-19, 01:57:05,VALID,1008.08,VALID,0,VALID,94.7957,VALID,0,VALID,23.733,VALID,43,VALID,0.452344,
2008-10-19, 01:58:05,VALID,1008.08,VALID,0,VALID,94.7881,VALID,0,VALID,23.7312,VALID,43,VALID,0.492578,
2008-10-19, 01:59:05,VALID,1008.1,VALID,0,VALID,94.7881,VALID,0,VALID,23.7135,VALID,43,VALID,0.331641,
2008-10-19, 02:00:05,VALID,1008.06,VALID,0,VALID,94.7881,VALID,0,VALID,23.6922,VALID,45,VALID,0.458594,
2008-10-19, 02:01:05,VALID,1008.05,VALID,0,VALID,94.7957,VALID,0,VALID,23.6922,VALID,51,VALID,0.288672,
2008-10-19, 02:02:05,VALID,1008.04,VALID,0,VALID,94.8186,VALID,0,VALID,23.694,VALID,51,VALID,0.00117188,
2008-10-19, 02:03:05,VALID,1008.06,VALID,0,VALID,94.811,VALID,0,VALID,23.7135,VALID,51,VALID,0,
2008-10-19, 02:04:05,VALID,1008.05,VALID,0,VALID,94.8034,VALID,0,VALID,23.694,VALID,51,VALID,0,
2008-10-19, 02:05:05,VALID,1008.06,VALID,0,VALID,94.8339,VALID,0,VALID,23.694,VALID,51,VALID,0,
2008-10-19, 02:06:05,VALID,1008.06,VALID,0,VALID,94.8339,VALID,0,VALID,23.694,VALID,51,VALID,0.173047,
2008-10-19, 02:07:05,VALID,1008.06,VALID,0,VALID,94.8186,VALID,0,VALID,23.6745,VALID,51,VALID,0.113672,
2008-10-19, 02:08:05,VALID,1008.07,VALID,0,VALID,94.8491,VALID,0,VALID,23.6727,VALID,51,VALID,0.0558594,
2008-10-19, 02:09:05,VALID,1008.05,VALID,0,VALID,94.8491,VALID,0,VALID,23.6922,VALID,51,VALID,0,
2008-10-19, 02:10:05,VALID,1008.06,VALID,0,VALID,94.8644,VALID,0,VALID,23.6922,VALID,51,VALID,0,
2008-10-19, 02:11:05,VALID,1008.05,VALID,0,VALID,94.8796,VALID,0,VALID,23.6922,VALID,51,VALID,0,
2008-10-19, 02:12:05,VALID,1008.04,VALID,0,VALID,94.8949,VALID,0,VALID,23.694,VALID,51,VALID,0,
2008-10-19, 02:13:05,VALID,1008.03,VALID,0,VALID,94.9025,VALID,0,VALID,23.694,VALID,51,VALID,0,
2008-10-19, 02:14:05,VALID,1008.02,VALID,0,VALID,94.9178,VALID,0,VALID,23.7135,VALID,51,VALID,0.152734,
2008-10-19, 02:15:05,VALID,1008.01,VALID,0,VALID,94.9025,VALID,0,VALID,23.7135,VALID,51,VALID,0,
2008-10-19, 02:16:05,VALID,1008.03,VALID,0,VALID,94.8796,VALID,0,VALID,23.7135,VALID,51,VALID,0,
2008-10-19, 02:17:05,VALID,1008.03,VALID,0,VALID,94.9101,VALID,0,VALID,23.7135,VALID,51,VALID,0,
2008-10-19, 02:18:05,VALID,1008.03,VALID,0,VALID,94.933,VALID,0,VALID,23.7525,VALID,51,VALID,0.0511719,
2008-10-19, 02:19:05,VALID,1008.03,VALID,0,VALID,94.9254,VALID,0,VALID,23.7525,VALID,51,VALID,0,
2008-10-19, 02:20:05,VALID,1008.03,VALID,0,VALID,94.9406,VALID,0,VALID,23.7525,VALID,51,VALID,0,
2008-10-19, 02:21:05,VALID,1008.04,VALID,0,VALID,94.9406,VALID,0,VALID,23.7312,VALID,52,VALID,0.298828,
2008-10-19, 02:22:05,VALID,1008.01,VALID,0,VALID,94.933,VALID,0,VALID,23.7117,VALID,110,VALID,0.404297,
2008-10-19, 02:23:05,VALID,1008.01,VALID,0,VALID,94.9254,VALID,0,VALID,23.733,VALID,110,VALID,0.177734,
2008-10-19, 02:24:05,VALID,1008.04,VALID,0,VALID,94.9254,VALID,0,VALID,23.733,VALID,110,VALID,0,
2008-10-19, 02:25:05,VALID,1008,VALID,0,VALID,94.9254,VALID,0,VALID,23.733,VALID,110,VALID,0,
2008-10-19, 02:26:05,VALID,1008,VALID,0,VALID,94.9406,VALID,0,VALID,23.733,VALID,110,VALID,0,
2008-10-19, 02:27:05,VALID,1007.99,VALID,0,VALID,94.933,VALID,0,VALID,23.772,VALID,110,VALID,0,
2008-10-19, 02:28:05,VALID,1007.98,VALID,0,VALID,94.9254,VALID,0,VALID,23.7525,VALID,103,VALID,0.289453,
2008-10-19, 02:29:05,VALID,1007.97,VALID,0,VALID,94.9025,VALID,0,VALID,23.733,VALID,103,VALID,0.262891,
2008-10-19, 02:30:05,VALID,1007.97,VALID,0,VALID,94.9025,VALID,0,VALID,23.7117,VALID,103,VALID,0.158203,
2008-10-19, 02:31:05,VALID,1007.98,VALID,0,VALID,94.8949,VALID,0,VALID,23.7117,VALID,103,VALID,0.173828,
2008-10-19, 02:32:05,VALID,1007.96,VALID,0,VALID,94.9025,VALID,0,VALID,23.7135,VALID,73,VALID,0.320313,
2008-10-19, 02:33:05,VALID,1007.99,VALID,0,VALID,94.872,VALID,0,VALID,23.7135,VALID,73,VALID,0.313672,
2008-10-19, 02:34:05,VALID,1008.01,VALID,0,VALID,94.8644,VALID,0,VALID,23.6745,VALID,73,VALID,0.19375,
2008-10-19, 02:35:05,VALID,1008,VALID,0,VALID,94.9025,VALID,0,VALID,23.6727,VALID,73,VALID,0.441406,
2008-10-19, 02:36:05,VALID,1008.02,VALID,0,VALID,94.8949,VALID,0,VALID,23.7135,VALID,64,VALID,0.365625,
2008-10-19, 02:37:05,VALID,1008.02,VALID,0,VALID,94.9025,VALID,0,VALID,23.7135,VALID,64,VALID,0.446484,
2008-10-19, 02:38:05,VALID,1008.02,VALID,0,VALID,94.8796,VALID,0,VALID,23.7135,VALID,64,VALID,0.489844,
2008-10-19, 02:39:05,VALID,1008.03,VALID,0,VALID,94.9254,VALID,0,VALID,23.7117,VALID,64,VALID,0.453125,
2008-10-19, 02:40:05,VALID,1008.01,VALID,0,VALID,94.9101,VALID,0,VALID,23.7525,VALID,102,VALID,0.720703,
2008-10-19, 02:41:05,VALID,1008.01,VALID,0,VALID,94.9101,VALID,0,VALID,23.733,VALID,99,VALID,0.848437,
2008-10-19, 02:42:05,VALID,1007.97,VALID,0,VALID,94.9101,VALID,0,VALID,23.7525,VALID,98,VALID,0.805078,
2008-10-19, 02:43:05,VALID,1007.94,VALID,0,VALID,94.9178,VALID,0,VALID,23.7312,VALID,95,VALID,0.615234,
2008-10-19, 02:44:05,VALID,1007.93,VALID,0,VALID,94.9101,VALID,0,VALID,23.7507,VALID,95,VALID,0.494531,
2008-10-19, 02:45:05,VALID,1007.93,VALID,0,VALID,94.8873,VALID,0,VALID,23.7914,VALID,93,VALID,0.586719,
2008-10-19, 02:46:05,VALID,1007.92,VALID,0,VALID,94.8796,VALID,0,VALID,23.772,VALID,90,VALID,0.723828,
2008-10-19, 02:47:05,VALID,1007.93,VALID,0,VALID,94.8796,VALID,0,VALID,23.7507,VALID,89,VALID,0.680078,
2008-10-19, 02:48:05,VALID,1007.93,VALID,0,VALID,94.8644,VALID,0,VALID,23.7525,VALID,81,VALID,0.844141,
2008-10-19, 02:49:05,VALID,1007.92,VALID,0,VALID,94.8568,VALID,0,VALID,23.7312,VALID,83,VALID,0.952734,
2008-10-19, 02:50:05,VALID,1007.95,VALID,0,VALID,94.8415,VALID,0,VALID,23.772,VALID,91,VALID,0.686719,
2008-10-19, 02:51:05,VALID,1007.95,VALID,0,VALID,94.8491,VALID,0,VALID,23.7525,VALID,99,VALID,0.737109,
2008-10-19, 02:52:05,VALID,1007.92,VALID,0,VALID,94.8339,VALID,0,VALID,23.7525,VALID,96,VALID,0.453906,
2008-10-19, 02:53:05,VALID,1007.93,VALID,0,VALID,94.8339,VALID,0.105969,VALID,23.7507,VALID,89,VALID,0.350391,
2008-10-19, 02:54:05,VALID,1007.96,VALID,0,VALID,94.8186,VALID,0.105969,VALID,23.7312,VALID,88,VALID,0.294141,
2008-10-19, 02:55:05,VALID,1007.93,VALID,0,VALID,94.8262,VALID,0.211938,VALID,23.7701,VALID,88,VALID,0.431641,
2008-10-19, 02:56:05,VALID,1007.93,VALID,0,VALID,94.8186,VALID,0.105969,VALID,23.7701,VALID,88,VALID,0.326562,
2008-10-19, 02:57:05,VALID,1007.95,VALID,0,VALID,94.811,VALID,0,VALID,23.7701,VALID,88,VALID,0.296094,
2008-10-19, 02:58:05,VALID,1007.92,VALID,0,VALID,94.8034,VALID,0.105969,VALID,23.7701,VALID,88,VALID,0.469531,
2008-10-19, 02:59:05,VALID,1007.92,VALID,0,VALID,94.811,VALID,0.105969,VALID,23.7701,VALID,54,VALID,0.495703,
2008-10-19, 03:00:05,VALID,1007.92,VALID,0,VALID,94.7957,VALID,0,VALID,23.7701,VALID,55,VALID,0.278516,
2008-10-19, 03:01:05,VALID,1007.9,VALID,0,VALID,94.7652,VALID,0.105969,VALID,23.7701,VALID,75,VALID,0.460547,
2008-10-19, 03:02:05,VALID,1007.9,VALID,0,VALID,94.7652,VALID,0.105969,VALID,23.7701,VALID,75,VALID,0.406641,
2008-10-19, 03:03:05,VALID,1007.9,VALID,0,VALID,94.7424,VALID,0.105969,VALID,23.7701,VALID,74,VALID,0.661719,
2008-10-19, 03:04:05,VALID,1007.87,VALID,0,VALID,94.7347,VALID,0,VALID,23.7896,VALID,73,VALID,0.407422,
2008-10-19, 03:05:05,VALID,1007.9,VALID,0,VALID,94.7195,VALID,0.105969,VALID,23.7896,VALID,73,VALID,0.461719,
2008-10-19, 03:06:05,VALID,1007.89,VALID,0,VALID,94.7271,VALID,0.105969,VALID,23.7896,VALID,76,VALID,0.470313,
2008-10-19, 03:07:05,VALID,1007.91,VALID,0,VALID,94.7119,VALID,0.105969,VALID,23.7896,VALID,73,VALID,0.444141,
2008-10-19, 03:08:05,VALID,1007.89,VALID,0,VALID,94.6814,VALID,0,VALID,23.7914,VALID,73,VALID,0.124219,
2008-10-19, 03:09:05,VALID,1007.88,VALID,0,VALID,94.6737,VALID,0,VALID,23.772,VALID,48,VALID,0.360156,
2008-10-19, 03:10:05,VALID,1007.91,VALID,0,VALID,94.6508,VALID,0,VALID,23.772,VALID,46,VALID,0.326953,
2008-10-19, 03:11:05,VALID,1007.94,VALID,0,VALID,94.6432,VALID,0,VALID,23.7914,VALID,46,VALID,0.230469,
2008-10-19, 03:12:05,VALID,1007.93,VALID,0,VALID,94.6127,VALID,0,VALID,23.772,VALID,46,VALID,0.496484,
2008-10-19, 03:13:05,VALID,1007.93,VALID,0,VALID,94.6127,VALID,0,VALID,23.772,VALID,46,VALID,0.328125,
2008-10-19, 03:14:05,VALID,1007.95,VALID,0,VALID,94.6203,VALID,0,VALID,23.772,VALID,68,VALID,0.629687,
2008-10-19, 03:15:05,VALID,1007.97,VALID,0,VALID,94.6127,VALID,0,VALID,23.772,VALID,86,VALID,0.749609,
2008-10-19, 03:16:05,VALID,1007.95,VALID,0,VALID,94.6432,VALID,0,VALID,23.7914,VALID,95,VALID,1.09648,
2008-10-19, 03:17:05,VALID,1007.95,VALID,0,VALID,94.6356,VALID,0,VALID,23.7914,VALID,99,VALID,0.781641,
2008-10-19, 03:18:05,VALID,1007.92,VALID,0,VALID,94.6661,VALID,0,VALID,23.7914,VALID,91,VALID,0.867969,
2008-10-19, 03:19:05,VALID,1007.9,VALID,0,VALID,94.6661,VALID,0,VALID,23.7701,VALID,102,VALID,0.758984,
2008-10-19, 03:20:05,VALID,1007.89,VALID,0,VALID,94.6661,VALID,0,VALID,23.7914,VALID,101,VALID,0.565234,
2008-10-19, 03:21:05,VALID,1007.87,VALID,0,VALID,94.6737,VALID,0,VALID,23.7914,VALID,101,VALID,0.435156,
2008-10-19, 03:22:05,VALID,1007.87,VALID,0,VALID,94.6737,VALID,0,VALID,23.8109,VALID,101,VALID,0.315234,
2008-10-19, 03:23:05,VALID,1007.85,VALID,0,VALID,94.6737,VALID,0.105969,VALID,23.7896,VALID,73,VALID,0.591406,
2008-10-19, 03:24:05,VALID,1007.83,VALID,0,VALID,94.6737,VALID,0.105969,VALID,23.7896,VALID,74,VALID,0.658594,
2008-10-19, 03:25:05,VALID,1007.84,VALID,0,VALID,94.6661,VALID,0.105969,VALID,23.8091,VALID,83,VALID,0.577734,
2008-10-19, 03:26:05,VALID,1007.83,VALID,0,VALID,94.6814,VALID,0,VALID,23.8091,VALID,80,VALID,0.441406,
2008-10-19, 03:27:05,VALID,1007.84,VALID,0,VALID,94.6814,VALID,0.105969,VALID,23.7878,VALID,102,VALID,0.6375,
2008-10-19, 03:28:05,VALID,1007.82,VALID,0,VALID,94.6737,VALID,0.105969,VALID,23.8091,VALID,92,VALID,0.708594,
2008-10-19, 03:29:05,VALID,1007.83,VALID,0,VALID,94.6737,VALID,0.105969,VALID,23.8091,VALID,105,VALID,0.735547,
2008-10-19, 03:30:05,VALID,1007.82,VALID,0,VALID,94.6661,VALID,0.105969,VALID,23.8091,VALID,112,VALID,0.293359,
2008-10-19, 03:31:05,VALID,1007.86,VALID,0,VALID,94.6737,VALID,0.105969,VALID,23.8091,VALID,102,VALID,0.173828,
2008-10-19, 03:32:05,VALID,1007.87,VALID,0,VALID,94.6432,VALID,0.105969,VALID,23.8286,VALID,99,VALID,0.394141,
2008-10-19, 03:33:05,VALID,1007.89,VALID,0,VALID,94.628,VALID,0.105969,VALID,23.8091,VALID,90,VALID,0.302344,
2008-10-19, 03:34:05,VALID,1007.9,VALID,0,VALID,94.6127,VALID,0.105969,VALID,23.7896,VALID,73,VALID,0.870703,
2008-10-19, 03:35:05,VALID,1007.87,VALID,0,VALID,94.6127,VALID,0.105969,VALID,23.8286,VALID,76,VALID,0.644531,
2008-10-19, 03:36:05,VALID,1007.87,VALID,0,VALID,94.6203,VALID,0.105969,VALID,23.8091,VALID,69,VALID,0.56875,
2008-10-19, 03:37:05,VALID,1007.86,VALID,0,VALID,94.6203,VALID,0.105969,VALID,23.8091,VALID,83,VALID,0.767969,
2008-10-19, 03:38:05,VALID,1007.82,VALID,0,VALID,94.6051,VALID,0,VALID,23.8499,VALID,61,VALID,0.516406,
2008-10-19, 03:39:05,VALID,1007.83,VALID,0,VALID,94.5898,VALID,0.105969,VALID,23.8286,VALID,67,VALID,0.428125,
2008-10-19, 03:40:05,VALID,1007.82,VALID,0,VALID,94.567,VALID,0.105969,VALID,23.7896,VALID,54,VALID,0.708984,
2008-10-19, 03:41:05,VALID,1007.8,VALID,0,VALID,94.5517,VALID,0.105969,VALID,23.7896,VALID,69,VALID,0.446094,
2008-10-19, 03:42:05,VALID,1007.76,VALID,0,VALID,94.5517,VALID,0.105969,VALID,23.7896,VALID,66,VALID,0.551172,
2008-10-19, 03:43:05,VALID,1007.79,VALID,0,VALID,94.5517,VALID,0.105969,VALID,23.7896,VALID,78,VALID,0.787109,
2008-10-19, 03:44:05,VALID,1007.82,VALID,0,VALID,94.5517,VALID,0.105969,VALID,23.7701,VALID,65,VALID,0.701563,